Ouarzazate, Morocco

11:12 PM WET on December 14, 2017 (GMT +0000)
Ouarzazate

Weather History for GMMZ - November, 2012

Change the Weather History Date:

Sunday, November 18, 2012

  Actual Average Record
Temperature  
Mean Temperature 58 °F -  
Max Temperature 64 °F 65 °F - ()
Min Temperature 51 °F 39 °F - ()
Degree Days  
Heating Degree Days 8    
Growing Degree Days 8 (Base 50)    
Moisture  
Dew Point 30 °F    
Average Humidity 34    
Maximum Humidity 54    
Minimum Humidity 14    
Precipitation  
Precipitation 0.00 in 0.02 in - ()
Sea Level Pressure  
Sea Level Pressure 29.92 in    
Wind  
Wind Speed 17 mph ()    
Max Wind Speed 31 mph    
Max Gust Speed 36 mph    
Visibility 7.7 miles    
Events      
T = Trace of Precipitation, MM = Missing Value Source: Averaged Metar Reports

Daily Weather History Graph

Daily Weather History Graph

Search for Another Location

Airport or City:

Trip Planner

Search our weather history database for the weather conditions in past years. The results will help you decide how hot, cold, wet, or windy it might be!

Date:

Astronomy

Nov. 18, 2012 Rise Set
Actual Time 6:57 AM WET 5:28 PM WET
Civil Twilight 6:31 AM WET 5:54 PM WET
Nautical Twilight 6:02 AM WET 6:23 PM WET
Astronomical Twilight 5:33 AM WET 6:52 PM WET
Moon 11:17 AM WET (11/18) 10:27 PM WET (11/18)
Length of Visible Light 11h 22m
Length of Day
10h 31m
Waxing Crescent, 28% of the Moon is Illuminated
Nov 18
Waxing Crescent
Nov 20
First Quarter
Nov 28
Full
Dec 6
Last Quarter
Dec 13
New

Hourly Weather History & Observations

Time (WET) Temp. Dew Point Humidity Pressure Visibility Wind Dir Wind Speed Gust Speed Precip Events Conditions
12:00 AM 56 °F 31 °F 26%  in 12 mi WNW 24.2 mph - -   Partly Cloudy
12:00 AM 55.4 °F 30.2 °F 38% 29.89 in 6.2 mi WNW 24.2 mph - N/A   Scattered Clouds
1:00 AM 55.4 °F 33.8 °F 44% 29.89 in 6.2 mi WNW 18.4 mph - N/A   Scattered Clouds
2:00 AM 53.6 °F 33.8 °F 47% 29.86 in 6.2 mi WNW 23.0 mph - N/A   Scattered Clouds
3:00 AM 54 °F 33 °F 32%  in 12 mi NW 17.3 mph - -   Partly Cloudy
3:00 AM - - N/A% 29.86 in 6.2 mi NW 17.3 mph - N/A   Scattered Clouds
4:00 AM 53.6 °F 33.8 °F 47% 29.86 in 6.2 mi West 18.4 mph - N/A   Scattered Clouds
5:00 AM 53.6 °F 33.8 °F 47% 29.86 in 6.2 mi WNW 15.0 mph - N/A   Scattered Clouds
6:00 AM 52 °F 34 °F 39%  in 12 mi West 15.0 mph - -   Scattered Clouds
6:00 AM 51.8 °F 33.8 °F 50% 29.89 in 6.2 mi West 15.0 mph - N/A   Partly Cloudy
7:00 AM 51.8 °F 35.6 °F 54% 29.89 in 6.2 mi West 17.3 mph - N/A   Scattered Clouds
8:00 AM 55.4 °F 35.6 °F 47% 29.89 in 6.2 mi West 21.9 mph 35.7 mph N/A   Scattered Clouds
9:00 AM 57 °F 35 °F 31%  in 12 mi West 19.6 mph - -   Partly Cloudy
9:00 AM 57.2 °F 35.6 °F 44% 29.92 in 6.2 mi West 19.6 mph - N/A   Scattered Clouds
10:00 AM 59.0 °F 32.0 °F 36% 29.92 in 6.2 mi WNW 31.1 mph - N/A   Scattered Clouds
11:00 AM 60.8 °F 32.0 °F 34% 29.92 in 6.2 mi WNW 28.8 mph - N/A   Scattered Clouds
12:00 PM 63 °F 26 °F 14%  in 12 mi WNW 26.5 mph - -   Partly Cloudy
12:00 PM 62.6 °F 24.8 °F 24% 29.92 in 6.2 mi WNW 27.6 mph - N/A   Scattered Clouds
1:00 PM 64.4 °F 30.2 °F 28% 29.92 in 6.2 mi West 15.0 mph - N/A   Scattered Clouds
2:00 PM 64.4 °F 24.8 °F 22% 29.92 in 6.2 mi WNW 20.7 mph - N/A   Scattered Clouds
3:00 PM 64 °F 28 °F 15%  in 12 mi West 21.9 mph - -   Partly Cloudy
3:00 PM 60.8 °F 28.4 °F 29% 29.92 in 6.2 mi West 21.9 mph - N/A   Scattered Clouds
4:00 PM 64.4 °F 26.6 °F 24% 29.92 in 6.2 mi WNW 15.0 mph - N/A   Scattered Clouds
5:00 PM 62.6 °F 26.6 °F 26% 29.92 in 6.2 mi West 179.5 mph - N/A   Partly Cloudy
6:00 PM 59 °F 27 °F 18%  in 12 mi West 13.8 mph - -   Scattered Clouds
6:00 PM 59.0 °F 26.6 °F 29% 29.95 in 6.2 mi West 13.8 mph - N/A   Partly Cloudy
7:00 PM 57.2 °F 28.4 °F 33% 29.95 in 6.2 mi SW 12.7 mph - N/A   Partly Cloudy
8:00 PM 55.4 °F 28.4 °F 36% 29.98 in 6.2 mi Variable 3.5 mph - N/A   Partly Cloudy
9:00 PM 53 °F 29 °F 27%  in 12 mi WNW 6.9 mph - -   Scattered Clouds
9:00 PM 53.6 °F 28.4 °F 38% 29.98 in 6.2 mi WNW 6.9 mph - N/A   Partly Cloudy
10:00 PM 53.6 °F 28.4 °F 38% 30.01 in - WNW 18.4 mph - N/A   Clear
11:00 PM 53.6 °F 30.2 °F 41% 30.04 in - West 11.5 mph - N/A   Clear